Flag for Germany Weather past 2 weeks in Landsberg am Lech, Bavaria, Germany

Now
52 °F

Passing clouds.


Feels Like: 47 °F
Forecast: 42 / 57 °F
Wind: 16 mph from West

Location: Landsberg

Current Time: Sep 22, 2014 at 6:33:28 PM

Latest Report: Sep 22, 2014 at 5:20 PM


Visibility: N/A

Pressure: 30.04 "Hg

Humidity: 77%

Dew point: 45 °F

Location of Landsberg am LechLocation

Historic Weather in Landsberg am Lech — Graph

°F

Landsberg am Lech temperature yesterday

Maximum temperature yesterday: 68 °F (at 2:20 PM)
Minimum temperature yesterday: 54 °F (at 10:20 PM)
Average temperature yesterday: 59 °F

Past Weeks' High & Low Weather Summary

 TemperatureHumidityPressure
High77 °F (Sep 8, 4:20 PM)100% (Sep 11, 7:20 AM)30.15 "Hg (Sep 11, 7:20 AM)
Low48 °F (Sep 11, 7:20 AM)44% (Sep 18, 3:20 PM)29.92 "Hg (Sep 17, 3:20 PM)
Average58 °F86%30.03 "Hg
* Reported Sep 7 5:20 PM — Sep 22 5:20 PM, Landsberg am Lech, Weather by CustomWeather, © 2014

Note: Actual official high and low records may vary slightly from our data, if they occured in-between our weather recording intervals... More about our weather records

Advertising

Landsberg am Lech weather history for previous 24 hours

 ConditionsComfort  
Time TempWeatherWind HumidityBarometerVisibility
5:20 PM
Sep 22
52 °FPassing clouds.16 mph77%30.04 "HgN/A
4:20 PM50 °FPartly sunny.15 mph82%30.04 "HgN/A
3:45 PM48 °FSprinkles. Partly sunny.14 mph87%30.04 "Hg5 mi
3:20 PM50 °FSprinkles. Partly sunny.15 mph82%30.07 "Hg4 mi
2:20 PM54 °FPartly sunny.13 mph67%30.07 "HgN/A
1:20 PM54 °FPartly sunny.12 mph72%30.07 "HgN/A
12:20 PM52 °FBroken clouds.15 mph77%30.09 "HgN/A
11:20 AM54 °FPassing clouds.15 mph67%30.09 "HgN/A
10:20 AM52 °FBroken clouds.15 mph77%30.09 "Hg5 mi
9:20 AM50 °FScattered clouds.14 mph88%30.09 "Hg4 mi
8:20 AM50 °FScattered clouds.10 mph94%30.09 "Hg4 mi
7:20 AM48 °FPartly cloudy.7 mph94%30.09 "Hg4 mi
6:20 AM50 °FPartly cloudy.8 mph94%30.07 "HgN/A
5:20 AM50 °FPartly cloudy.5 mph100%30.07 "HgN/A
4:20 AM52 °FPartly cloudy.9 mph94%30.07 "HgN/A
3:20 AM52 °FLight rain. Partly cloudy.8 mph94%30.07 "HgN/A
2:20 AM52 °FLight rain. Partly cloudy.7 mph94%30.07 "HgN/A
1:20 AM52 °FLight rain. Partly cloudy.9 mph100%30.07 "HgN/A
12:20 AM54 °FLight rain. Passing clouds.9 mph94%30.07 "HgN/A
11:20 PM
Sep 21
54 °FLight rain. Partly cloudy.8 mph94%30.04 "HgN/A
10:20 PM54 °FLight rain. Passing clouds.9 mph94%30.01 "HgN/A
9:20 PM57 °FRain. Partly cloudy.13 mph94%29.98 "Hg5 mi
8:20 PM57 °FCool.10 mph94%29.98 "Hg3 mi
7:20 PM57 °FCool.10 mph88%29.98 "Hg3 mi
6:20 PM57 °FCool.13 mph94%29.98 "Hg3 mi
Weather by CustomWeather, © 2014

See weather overviewHow to use our weather pages